Location: Coll
(42.4728°N, 0.7714°E)
Time: 12:53:07
(UTC+00:00)

Lacrosse 4 Rocket - Pass Details

Date: 23 October 2020
Orbit: 541 x 617 km, 68.0° (Epoch: 01 December)

Event Time Altitude Azimuth Distance (km) Brightness Sun altitude
Exits shadow 05:27:04 - 236° (SW) 2,000 3.7 -10.4°
Reaches altitude 10° 05:27:36 10° 239° (WSW) 1,803 3.5 -10.3°
Maximum altitude 05:31:17 34° 305° (NW) 907 2.0 -9.6°
Drops below altitude 10° 05:34:59 10° 12° (NNE) 1,813 4.0 -8.9°
Sets 05:37:21 0° 22° (NNE) 2,714 5.0 -8.5°
